Location: Bu�n Treun
(12.1333°N, 108.3167°E)
Time: 00:25:56
(UTC+00:00)

Atlas Centaur 2 - Pass Details

Date: 13 July 2020
Orbit: 459 x 1310 km, 30.4° (Epoch: 03 August)

Event Time Altitude Azimuth Distance (km) Brightness Sun altitude
Rises 13:08:54 0° 316° (NW) 2,886 6.2 -25.5°
Reaches altitude 10° 13:11:22 10° 329° (NNW) 2,104 5.1 -26.1°
Maximum altitude 13:15:31 26° 26° (NNE) 1,495 3.5 -26.9°
Enters shadow 13:16:03 26° 36° (NE) 1,533 3.5 -27.0°
